Location: Addison Town Hall
(32.9525°N, 96.8158°W)
Time: 00:31:22
(UTC+00:00)

COSMO-SKYMED 1 - Pass Details

Date: 08 March 2021
Orbit: 621 x 624 km, 97.9° (Epoch: 10 April)

Event Time Altitude Azimuth Distance (km) Brightness Sun altitude
Rises 12:18:53 0° 186° (S) 2,888 5.9 -6.5°
Reaches altitude 10° 12:21:13 10° 196° (SSW) 1,986 5.0 -6.1°
Maximum altitude 12:25:10 35° 262° (W) 1,014 3.2 -5.2°
Drops below altitude 10° 12:29:09 10° 328° (NNW) 1,997 4.8 -4.4°
Sets 12:31:30 0° 338° (NNW) 2,908 5.7 -3.9°
